Weather History for Covington, KY

Change the Weather History Date:

Sunday, March 23, 2014

  Actual Average Record
Temperature  
Mean Temperature 35 °F 46 °F  
Max Temperature 41 °F 56 °F 84 °F (1907)
Min Temperature 28 °F 36 °F 11 °F (1885)
Degree Days  
Heating Degree Days 30 19  
Month to date heating degree days 583 526  
Since 1 July heating degree days 4827 4353  
Cooling Degree Days 0 0  
Month to date cooling degree days 0 0  
Year to date cooling degree days 0 0  
Moisture  
Dew Point 19 °F    
Average Humidity 54    
Maximum Humidity 75    
Minimum Humidity 33    
Precipitation  
Precipitation 0.00 in 0.13 in 1.30 in (1975)
Month to date precipitation 1.27 2.83  
Year to date precipitation 6.81 8.64  
Snow  
Snow 0.00 in 0.10 in 3.50 in (1896)
Month to date snowfall 2.5 2.6  
Since 1 July snowfall 46.1 21.2  
Snow Depth 0.00 in    
Sea Level Pressure  
Sea Level Pressure 30.26 in    
Wind  
Wind Speed 11 mph (North)    
Max Wind Speed 21 mph    
Max Gust Speed 25 mph    
Visibility 10 miles    
Events      
T = Trace of Precipitation, MM = Missing Value Source: NWS Daily Summary

Daily Weather History Graph

Daily Weather History Graph

Search for Another Location

Airport:

Trip Planner

Search our weather history database for the weather conditions in past years. The results will help you decide how hot, cold, wet, or windy it might be!

Date:

Astronomy

Mar. 23, 2014 Rise Set
Actual Time 7:37 AM EDT 7:53 PM EDT
Civil Twilight 7:10 AM EDT 8:20 PM EDT
Nautical Twilight 6:39 AM EDT 8:51 PM EDT
Astronomical Twilight 6:07 AM EDT 9:23 PM EDT
Moon 2:07 AM EDT (3/23) 12:20 PM EDT (3/23)
Length of Visible Light 13h 09m
Length of Day
12h 16m
Waning Gibbous, 55% of the Moon is Illuminated
Mar 23
Waning Gibbous
Mar 23
Last Quarter
Mar 30
New
Apr 7
First Quarter
Apr 15
Full

Hourly Weather History & Observations

Time (EDT) Temp. Windchill Dew Point Humidity Pressure Visibility Wind Dir Wind Speed Gust Speed Precip Events Conditions
12:52 AM 37.9 °F 33.5 °F 27.0 °F 65% 30.19 in 10.0 mi North 5.8 mph - N/A   Mostly Cloudy
1:52 AM 37.0 °F 32.4 °F 28.0 °F 70% 30.17 in 9.0 mi North 5.8 mph - N/A   Mostly Cloudy
2:52 AM 37.0 °F 32.4 °F 28.0 °F 70% 30.18 in 9.0 mi North 5.8 mph - N/A   Overcast
3:52 AM 36.0 °F 30.3 °F 27.0 °F 70% 30.19 in 10.0 mi North 6.9 mph - N/A   Overcast
4:52 AM 36.0 °F 28.0 °F 28.0 °F 73% 30.19 in 9.0 mi North 11.5 mph - N/A   Overcast
5:52 AM 36.0 °F 27.1 °F 27.0 °F 70% 30.21 in 10.0 mi North 13.8 mph - N/A   Overcast
6:52 AM 34.0 °F 23.8 °F 24.1 °F 67% 30.23 in 10.0 mi North 16.1 mph - N/A   Overcast
7:00 AM 33.8 °F 24.3 °F 23.0 °F 65% 30.22 in 10.0 mi North 13.8 mph - N/A   Overcast
7:52 AM 33.1 °F 24.4 °F 21.0 °F 61% 30.25 in 10.0 mi North 11.5 mph - N/A   Overcast
9:52 AM 33.1 °F 23.0 °F 21.9 °F 64% 30.28 in 10.0 mi North 15.0 mph - N/A   Overcast
10:41 AM 33.8 °F 23.5 °F 19.4 °F 56% 30.28 in 10.0 mi North 16.1 mph - N/A   Overcast
10:52 AM 33.1 °F 23.9 °F 18.0 °F 54% 30.30 in 10.0 mi North 12.7 mph - N/A   Overcast
11:52 AM 36.0 °F 26.7 °F 16.0 °F 44% 30.31 in 10.0 mi NNW 15.0 mph - N/A   Scattered Clouds
12:52 PM 37.0 °F 29.8 °F 14.0 °F 39% 30.29 in 10.0 mi NNW 10.4 mph 17.3 mph N/A   Scattered Clouds
1:52 PM 39.9 °F 30.5 °F 14.0 °F 35% 30.29 in 10.0 mi NNW 19.6 mph 23.0 mph N/A   Scattered Clouds
2:52 PM 39.0 °F 33.4 °F 14.0 °F 36% 30.28 in 10.0 mi NNE 8.1 mph 21.9 mph N/A   Scattered Clouds
3:52 PM 39.9 °F 32.9 °F 14.0 °F 35% 30.26 in 10.0 mi North 11.5 mph 20.7 mph N/A   Mostly Cloudy
4:52 PM 39.0 °F 30.6 °F 15.1 °F 38% 30.26 in 10.0 mi North 15.0 mph - N/A   Mostly Cloudy
5:52 PM 39.0 °F 31.4 °F 12.9 °F 34% 30.27 in 10.0 mi North 12.7 mph 23.0 mph N/A   Partly Cloudy
6:52 PM 37.0 °F 29.3 °F 15.1 °F 41% 30.28 in 10.0 mi North 11.5 mph - N/A   Scattered Clouds
7:52 PM 35.1 °F 26.9 °F 15.1 °F 44% 30.30 in 10.0 mi North 11.5 mph - N/A   Scattered Clouds
8:52 PM 32.0 °F 24.8 °F 14.0 °F 48% 30.31 in 10.0 mi North 8.1 mph - N/A   Partly Cloudy
9:52 PM 30.0 °F 21.7 °F 15.1 °F 54% 30.32 in 10.0 mi North 9.2 mph - N/A   Clear
10:52 PM 28.9 °F 21.9 °F 15.1 °F 56% 30.33 in 10.0 mi North 6.9 mph - N/A   Clear
11:52 PM 30.0 °F 21.7 °F 12.9 °F 49% 30.34 in 10.0 mi NNE 9.2 mph - N/A   Clear